Location: Friaudour
(46.0460°N, 1.2873°E)
Time: 21:03:23
(UTC+00:00)

Cosmos 1544 - Pass Details

Date: 14 July 2020
Orbit: 473 x 490 km, 82.5° (Epoch: 14 August)

Event Time Altitude Azimuth Distance (km) Brightness Sun altitude
Exits shadow 03:00:06 - 172° (S) 1,937 5.7 -11.1°
Reaches altitude 10° 03:00:50 10° 170° (S) 1,636 5.4 -11.0°
Maximum altitude 03:04:17 49° 95° (E) 624 3.9 -10.6°
Drops below altitude 10° 03:07:46 10° 20° (NNE) 1,651 6.9 -10.2°
Sets 03:09:55 0° 14° (NNE) 2,536 7.9 -9.9°
